• In Uzbekistan
  • List of Countries
  • For 7 days
  • Water Temperature
  • Satellite Maps
  • Weather Map
  • Weather Widgets
  • user-avatar
    Login

    Hourly Weather Balasma

    Today, 18 October, Thursday

    Time Temperature Precipitation Wind Pressure Humidity
    00:00 +15°C° 0 mm 4 mps 769 mmHg 94%
    01:00 +16°C° 0 mm 3 mps 769 mmHg 93%
    02:00 +16°C° 0 mm 3 mps 769 mmHg 92%
    03:00 +16°C° 0 mm 2 mps 768 mmHg 91%
    04:00 +16°C° 0 mm 2 mps 768 mmHg 91%
    05:00 +16°C° 0 mm 2 mps 768 mmHg 90%
    06:00 +16°C° 0 mm 2 mps 768 mmHg 89%
    07:00 +17°C° 0 mm 3 mps 768 mmHg 82%
    08:00 +19°C° 0 mm 3 mps 768 mmHg 74%
    09:00 +21°C° 0 mm 3 mps 768 mmHg 66%
    10:00 +21°C° 0 mm 3 mps 768 mmHg 62%
    11:00 +22°C° 0 mm 4 mps 768 mmHg 58%
    12:00 +23°C° 0 mm 4 mps 768 mmHg 54%
    13:00 +23°C° 0 mm 4 mps 768 mmHg 54%
    14:00 +23°C° 0 mm 4 mps 768 mmHg 55%
    15:00 +22°C° 0 mm 5 mps 768 mmHg 56%
    16:00 +21°C° 0 mm 4 mps 768 mmHg 64%
    17:00 +19°C° 0 mm 4 mps 768 mmHg 72%
    18:00 +17°C° 0 mm 4 mps 768 mmHg 81%
    19:00 +17°C° 0 mm 4 mps 768 mmHg 84%
    20:00 +17°C° 0 mm 4 mps 768 mmHg 88%
    21:00 +15°C° 0 mm 4 mps 768 mmHg 92%
    22:00 +15°C° 0 mm 4 mps 768 mmHg 92%
    23:00 +15°C° 0 mm 4 mps 768 mmHg 92%

    Tomorrow, 19 October, Friday

    Time Temperature Precipitation Wind Pressure Humidity
    00:00 +15°C° 0 mm 4 mps 768 mmHg 92%
    01:00 +15°C° 0 mm 4 mps 768 mmHg 92%
    02:00 +15°C° 0 mm 4 mps 767 mmHg 92%
    03:00 +15°C° 0 mm 4 mps 767 mmHg 92%
    04:00 +15°C° 0 mm 5 mps 767 mmHg 92%
    05:00 +15°C° 0 mm 5 mps 767 mmHg 92%
    06:00 +15°C° 0 mm 5 mps 767 mmHg 91%
    07:00 +16°C° 0 mm 6 mps 767 mmHg 83%
    08:00 +19°C° 0 mm 6 mps 767 mmHg 75%
    09:00 +21°C° 0 mm 7 mps 767 mmHg 67%
    10:00 +21°C° 0 mm 7 mps 767 mmHg 64%
    11:00 +22°C° 0 mm 8 mps 767 mmHg 61%
    12:00 +23°C° 0 mm 8 mps 767 mmHg 58%
    13:00 +23°C° 0 mm 8 mps 766 mmHg 59%
    14:00 +22°C° 0 mm 8 mps 766 mmHg 61%
    15:00 +22°C° 0 mm 8 mps 766 mmHg 63%
    16:00 +21°C° 0 mm 8 mps 766 mmHg 69%
    17:00 +18°C° 0 mm 8 mps 766 mmHg 75%
    18:00 +17°C° 0 mm 7 mps 766 mmHg 82%
    19:00 +17°C° 0 mm 7 mps 766 mmHg 83%
    20:00 +16°C° 0 mm 7 mps 766 mmHg 84%
    21:00 +16°C° 0 mm 7 mps 766 mmHg 85%
    22:00 +16°C° 0 mm 7 mps 766 mmHg 85%
    23:00 +16°C° 0 mm 7 mps 765 mmHg 86%

    Day after tomorrow, 20 October, Saturday

    Time Temperature Precipitation Wind Pressure Humidity
    00:00 +15°C° 0 mm 7 mps 765 mmHg 86%
    01:00 +15°C° 0 mm 6 mps 765 mmHg 87%
    02:00 +15°C° 0 mm 6 mps 764 mmHg 88%
    03:00 +15°C° 0 mm 6 mps 764 mmHg 88%
    04:00 +15°C° 0 mm 6 mps 764 mmHg 88%
    05:00 +15°C° 0 mm 5 mps 764 mmHg 88%
    06:00 +15°C° 0 mm 5 mps 764 mmHg 88%
    07:00 +16°C° 0 mm 5 mps 764 mmHg 80%
    08:00 +19°C° 0 mm 5 mps 764 mmHg 72%
    09:00 +21°C° 0 mm 5 mps 764 mmHg 64%
    10:00 +22°C° 0 mm 5 mps 764 mmHg 59%
    11:00 +23°C° 0 mm 5 mps 763 mmHg 54%
    12:00 +25°C° 0 mm 5 mps 763 mmHg 48%
    13:00 +25°C° 0 mm 5 mps 763 mmHg 49%
    14:00 +25°C° 0 mm 5 mps 763 mmHg 50%
    15:00 +25°C° 0 mm 5 mps 763 mmHg 50%
    16:00 +22°C° 0 mm 5 mps 763 mmHg 61%
    17:00 +20°C° 0 mm 4 mps 763 mmHg 71%
    18:00 +18°C° 0 mm 4 mps 763 mmHg 81%
    19:00 +18°C° 0 mm 4 mps 763 mmHg 83%
    20:00 +17°C° 0 mm 3 mps 763 mmHg 85%
    21:00 +17°C° 0 mm 3 mps 763 mmHg 87%
    22:00 +16°C° 0 mm 2 mps 763 mmHg 87%
    23:00 +16°C° 0 mm 2 mps 762 mmHg 86%

    21 October, Sunday

    Time Temperature Precipitation Wind Pressure Humidity
    00:00 +16°C° 0 mm 1 mps 762 mmHg 86%
    01:00 +16°C° 0 mm 1 mps 762 mmHg 85%
    02:00 +15°C° 0 mm 1 mps 762 mmHg 85%
    03:00 +15°C° 0 mm 1 mps 762 mmHg 85%
    04:00 +15°C° 0 mm 1 mps 762 mmHg 85%
    05:00 +15°C° 0 mm 1 mps 762 mmHg 85%
    06:00 +14°C° 0 mm 1 mps 762 mmHg 85%
    07:00 +16°C° 0 mm 1 mps 762 mmHg 78%
    08:00 +19°C° 0 mm 1 mps 762 mmHg 72%
    09:00 +21°C° 0 mm 1 mps 762 mmHg 65%
    10:00 +22°C° 0 mm 1 mps 762 mmHg 60%
    11:00 +23°C° 0 mm 1 mps 761 mmHg 54%
    12:00 +24°C° 0 mm 2 mps 761 mmHg 49%
    13:00 +24°C° 0 mm 2 mps 761 mmHg 50%
    14:00 +24°C° 0 mm 3 mps 761 mmHg 51%
    15:00 +25°C° 0 mm 3 mps 760 mmHg 51%
    16:00 +22°C° 0 mm 3 mps 761 mmHg 62%
    17:00 +20°C° 0 mm 3 mps 761 mmHg 72%
    18:00 +18°C° 0 mm 3 mps 761 mmHg 82%
    19:00 +18°C° 0 mm 2 mps 761 mmHg 85%
    20:00 +17°C° 0 mm 2 mps 761 mmHg 87%
    21:00 +17°C° 0 mm 2 mps 761 mmHg 90%
    22:00 +16°C° 0 mm 2 mps 761 mmHg 90%
    23:00 +16°C° 0 mm 2 mps 761 mmHg 91%

    22 October, Monday

    Time Temperature Precipitation Wind Pressure Humidity
    00:00 +16°C° 0 mm 2 mps 760 mmHg 91%
    01:00 +16°C° 0 mm 2 mps 760 mmHg 91%
    02:00 +16°C° 0 mm 2 mps 760 mmHg 91%
    03:00 +16°C° 0 mm 2 mps 760 mmHg 91%
    04:00 +16°C° 0 mm 2 mps 760 mmHg 90%
    05:00 +16°C° 0 mm 2 mps 760 mmHg 89%
    06:00 +16°C° 0 mm 1 mps 761 mmHg 89%
    07:00 +18°C° 0 mm 1 mps 761 mmHg 82%
    08:00 +19°C° 0 mm 2 mps 761 mmHg 75%
    09:00 +20°C° 0 mm 2 mps 761 mmHg 68%
    10:00 +21°C° 0 mm 2 mps 761 mmHg 61%
    11:00 +24°C° 0 mm 2 mps 761 mmHg 54%
    12:00 +25°C° 0 mm 3 mps 761 mmHg 48%
    13:00 +25°C° 0 mm 3 mps 761 mmHg 46%
    14:00 +25°C° 0 mm 4 mps 761 mmHg 45%
    15:00 +25°C° 0 mm 4 mps 760 mmHg 43%
    16:00 +24°C° 0 mm 3 mps 761 mmHg 49%
    17:00 +21°C° 0 mm 3 mps 761 mmHg 55%
    18:00 +19°C° 0 mm 3 mps 762 mmHg 62%
    19:00 +19°C° 0 mm 2 mps 762 mmHg 65%
    20:00 +18°C° 0 mm 2 mps 762 mmHg 68%
    21:00 +18°C° 0 mm 2 mps 762 mmHg 71%
    22:00 +17°C° 0 mm 2 mps 762 mmHg 72%
    23:00 +17°C° 0 mm 2 mps 762 mmHg 72%

    23 October, Tuesday

    Time Temperature Precipitation Wind Pressure Humidity
    00:00 +17°C° 0 mm 2 mps 762 mmHg 73%
    01:00 +16°C° 0 mm 2 mps 762 mmHg 76%
    02:00 +16°C° 0 mm 2 mps 762 mmHg 79%
    03:00 +16°C° 0 mm 2 mps 762 mmHg 82%
    04:00 +16°C° 0 mm 2 mps 762 mmHg 84%
    05:00 +15°C° 0 mm 2 mps 762 mmHg 85%
    06:00 +15°C° 0 mm 2 mps 762 mmHg 87%
    07:00 +17°C° 0 mm 2 mps 762 mmHg 77%
    08:00 +19°C° 0 mm 2 mps 762 mmHg 66%
    09:00 +21°C° 0 mm 2 mps 762 mmHg 55%
    10:00 +24°C° 0 mm 3 mps 762 mmHg 47%
    11:00 +25°C° 0 mm 3 mps 761 mmHg 38%
    12:00 +26°C° 0 mm 4 mps 761 mmHg 30%
    13:00 +26°C° 0 mm 4 mps 761 mmHg 30%
    14:00 +26°C° 0 mm 5 mps 760 mmHg 30%
    15:00 +26°C° 0 mm 5 mps 760 mmHg 30%
    16:00 +22°C° 0 mm 5 mps 760 mmHg 40%
    17:00 +20°C° 0 mm 4 mps 760 mmHg 50%
    18:00 +18°C° 0 mm 4 mps 760 mmHg 59%
    19:00 +18°C° 0 mm 4 mps 760 mmHg 64%
    20:00 +17°C° 0 mm 4 mps 760 mmHg 68%
    21:00 +17°C° 0 mm 3 mps 760 mmHg 72%
    22:00 +16°C° 0 mm 3 mps 760 mmHg 73%
    23:00 +16°C° 0 mm 3 mps 759 mmHg 74%
    Show more